Weather WX

World > North America > United States > Ohio

Fairmont, Ohio Regional Weather

Lat: 39.16N, Lon: 84.61W
Wx Zone: OHZ077
Warning FLW WEATHER ALERT - FLASH FLOOD WATCH (More Info. Click Here) Warning
Feedback

Fairmont, OH Regional Weather

Expires:201906170900;;202911
ASUS41 KCLE 170812
RWRCLE
OHIO REGIONAL WEATHER ROUNDUP
NATIONAL WEATHER SERVICE WILMINGTON, OH
400 AM EDT MON JUN 17 2019

NOTE: "FAIR" INDICATES FEW OR NO CLOUDS BELOW 12,000 FEET WITH NO
SIGNIFICANT WEATHER AND/OR OBSTRUCTIONS TO VISIBILITY.


OHZ042-051>053-060>062-070>072-077>081-170900-
  SOUTHWEST OHIO
  
CITY           SKY/WX    TMP DP  RH WIND       PRES   REMARKS
CINC-COVINGTON CLOUDY    67  64  90 S7        29.91F                  
CINC-LUNKEN    LGT RAIN  67  65  93 CALM      29.91F                  
HAMILTON       CLOUDY    68  67  96 CALM      29.92S                  
DAYTON         CLOUDY    69  66  90 S8        29.92S                  
WRIGHT-PAT AFB MOCLDY    68  66  93 S7        29.91S                  
DAYTON GENERAL MOCLDY    68  65  90 S5        29.92F FOG              
WILMINGTON     FAIR      65  65 100 SW5       29.93F                  
$$


SKY/WX - Weather  TMP - Temperature  DP - Dew Point  RH - Relative Humidity
WIND - Wind Direction/Speed PRES - Barometric Pressure VSB - Visibility
WCI - Wind Chill Index E13G22 Wind - East Wind 13 mph/Gusts of 22 mph